TimePDT,TemperatureF,Dew PointF,Humidity,Sea Level PressureIn,VisibilityMPH,Wind Direction,Wind SpeedMPH,Gust SpeedMPH,PrecipitationIn,Events,Conditions,WindDirDegrees,DateUTC
12:15 AM,53.6,32.0,44,29.83,10.0,SW,16.1,20.7,N/A,,Overcast,230,2013-09-21 07:15:00
12:35 AM,51.8,39.2,62,29.83,10.0,WSW,12.7,-,N/A,,Overcast,250,2013-09-21 07:35:00
12:55 AM,51.8,41.0,67,29.83,10.0,West,8.1,-,N/A,,Overcast,270,2013-09-21 07:55:00
1:15 AM,51.8,41.0,67,29.82,10.0,West,9.2,-,N/A,,Overcast,280,2013-09-21 08:15:00
1:35 AM,48.2,44.6,87,29.85,10.0,WSW,8.1,-,N/A,,Overcast,250,2013-09-21 08:35:00
1:55 AM,48.2,44.6,87,29.85,7.0,Calm,Calm,-,0.01,,Overcast,0,2013-09-21 08:55:00
2:15 AM,48.2,44.6,87,29.84,7.0,ESE,3.5,-,0.01,,Overcast,120,2013-09-21 09:15:00
2:35 AM,48.2,44.6,87,29.84,7.0,ESE,4.6,-,0.02,,Overcast,120,2013-09-21 09:35:00
2:55 AM,46.4,44.6,93,29.84,7.0,ESE,6.9,-,0.05,,Overcast,110,2013-09-21 09:55:00
3:15 AM,46.4,44.6,93,29.82,10.0,ESE,9.2,-,0.01,,Overcast,110,2013-09-21 10:15:00
3:35 AM,48.2,44.6,87,29.82,8.0,ESE,8.1,-,0.01,,Overcast,120,2013-09-21 10:35:00
3:55 AM,48.2,44.6,87,29.82,10.0,ESE,8.1,-,0.01,,Overcast,120,2013-09-21 10:55:00
4:15 AM,48.2,44.6,87,29.82,9.0,ESE,6.9,-,N/A,,Overcast,120,2013-09-21 11:15:00
4:35 AM,48.2,44.6,87,29.81,8.0,SE,8.1,-,N/A,,Overcast,130,2013-09-21 11:35:00
4:55 AM,48.2,44.6,87,29.80,8.0,ESE,8.1,-,0.01,,Overcast,120,2013-09-21 11:55:00
5:15 AM,48.2,44.6,87,29.80,10.0,SE,10.4,-,N/A,,Overcast,130,2013-09-21 12:15:00
5:35 AM,46.4,44.6,93,29.82,8.0,SSE,6.9,-,0.02,,Overcast,160,2013-09-21 12:35:00
5:55 AM,46.4,44.6,93,29.81,10.0,SE,8.1,-,0.02,,Overcast,140,2013-09-21 12:55:00
6:15 AM,46.4,44.6,93,29.82,10.0,ESE,10.4,-,N/A,,Overcast,120,2013-09-21 13:15:00
6:35 AM,46.4,44.6,93,29.82,10.0,SE,8.1,-,N/A,,Overcast,130,2013-09-21 13:35:00
6:55 AM,46.4,44.6,93,29.82,10.0,ESE,9.2,-,N/A,,Overcast,120,2013-09-21 13:55:00
7:15 AM,46.4,44.6,93,29.81,10.0,East,4.6,-,N/A,,Overcast,90,2013-09-21 14:15:00
7:35 AM,46.4,44.6,93,29.82,10.0,ESE,5.8,-,N/A,,Overcast,120,2013-09-21 14:35:00
7:55 AM,48.2,44.6,87,29.82,10.0,SE,5.8,-,N/A,,Overcast,140,2013-09-21 14:55:00
8:15 AM,48.2,44.6,87,29.81,10.0,ESE,5.8,-,N/A,,Overcast,120,2013-09-21 15:15:00
8:35 AM,48.2,46.4,93,29.80,10.0,East,4.6,-,N/A,,Overcast,100,2013-09-21 15:35:00
8:55 AM,48.2,46.4,93,29.81,10.0,Calm,Calm,-,N/A,,Mostly Cloudy,0,2013-09-21 15:55:00
9:15 AM,48.2,44.6,87,29.82,9.0,South,8.1,16.1,0.01,,Overcast,180,2013-09-21 16:15:00
9:35 AM,46.4,44.6,93,29.82,10.0,South,8.1,-,0.02,,Overcast,170,2013-09-21 16:35:00
9:55 AM,48.2,44.6,87,29.83,10.0,SSW,8.1,-,0.02,,Overcast,200,2013-09-21 16:55:00
10:15 AM,48.2,44.6,87,29.83,10.0,SSW,4.6,-,N/A,,Overcast,210,2013-09-21 17:15:00
10:35 AM,48.2,44.6,87,29.83,10.0,SSW,5.8,-,N/A,,Overcast,200,2013-09-21 17:35:00
10:55 AM,48.2,44.6,87,29.83,8.0,Calm,Calm,-,N/A,,Overcast,0,2013-09-21 17:55:00
11:15 AM,48.2,44.6,87,29.82,10.0,East,8.1,-,0.01,,Overcast,80,2013-09-21 18:15:00
11:35 AM,48.2,44.6,87,29.83,10.0,East,5.8,-,0.01,,Overcast,100,2013-09-21 18:35:00
11:55 AM,50.0,44.6,82,29.82,10.0,SSE,5.8,-,0.01,,Overcast,150,2013-09-21 18:55:00
12:15 PM,50.0,44.6,82,29.81,10.0,SSE,5.8,-,N/A,,Overcast,150,2013-09-21 19:15:00
12:35 PM,51.8,46.4,82,29.81,10.0,SSE,8.1,-,N/A,,Scattered Clouds,160,2013-09-21 19:35:00
12:55 PM,53.6,46.4,77,29.80,10.0,SSW,10.4,-,N/A,,Clear,200,2013-09-21 19:55:00
1:15 PM,55.4,44.6,67,29.80,10.0,SSW,17.3,-,N/A,,Scattered Clouds,200,2013-09-21 20:15:00
1:35 PM,55.4,44.6,67,29.81,10.0,SW,20.7,27.6,N/A,,Mostly Cloudy,220,2013-09-21 20:35:00
1:55 PM,50.0,44.6,82,29.81,10.0,WSW,19.6,26.5,N/A,,Mostly Cloudy,240,2013-09-21 20:55:00
2:15 PM,51.8,42.8,71,29.81,10.0,SW,17.3,23.0,N/A,,Overcast,230,2013-09-21 21:15:00
2:35 PM,55.4,42.8,63,29.81,10.0,WSW,16.1,-,N/A,,Mostly Cloudy,240,2013-09-21 21:35:00
2:55 PM,53.6,42.8,67,29.81,10.0,SW,15.0,23.0,N/A,,Mostly Cloudy,220,2013-09-21 21:55:00
3:15 PM,51.8,42.8,71,29.81,10.0,SW,13.8,20.7,N/A,,Overcast,220,2013-09-21 22:15:00
3:35 PM,48.2,41.0,76,29.82,10.0,West,17.3,26.5,N/A,,Overcast,260,2013-09-21 22:35:00
3:55 PM,50.0,39.2,66,29.82,10.0,West,9.2,-,N/A,,Mostly Cloudy,270,2013-09-21 22:55:00
4:15 PM,50.0,39.2,66,29.82,10.0,Calm,Calm,-,N/A,,Mostly Cloudy,0,2013-09-21 23:15:00
4:35 PM,50.0,39.2,66,29.81,10.0,SE,4.6,-,N/A,,Partly Cloudy,140,2013-09-21 23:35:00
4:55 PM,51.8,39.2,62,29.82,10.0,South,8.1,-,N/A,,Mostly Cloudy,180,2013-09-21 23:55:00
5:15 PM,51.8,37.4,58,29.82,10.0,SW,8.1,-,N/A,,Scattered Clouds,220,2013-09-22 00:15:00
5:35 PM,50.0,37.4,62,29.82,10.0,South,5.8,-,N/A,,Partly Cloudy,180,2013-09-22 00:35:00
5:55 PM,48.2,39.2,71,29.82,10.0,SSE,6.9,-,N/A,,Scattered Clouds,160,2013-09-22 00:55:00
6:15 PM,48.2,41.0,76,29.82,10.0,SE,6.9,-,N/A,,Mostly Cloudy,140,2013-09-22 01:15:00
6:35 PM,48.2,39.2,71,29.82,10.0,SSE,5.8,-,N/A,,Overcast,150,2013-09-22 01:35:00
6:55 PM,48.2,39.2,71,29.82,10.0,WSW,4.6,-,N/A,,Mostly Cloudy,240,2013-09-22 01:55:00
7:15 PM,48.2,37.4,66,29.82,10.0,Calm,Calm,-,N/A,,Partly Cloudy,0,2013-09-22 02:15:00
7:35 PM,44.6,37.4,76,29.82,10.0,South,4.6,-,N/A,,Clear,190,2013-09-22 02:35:00
7:55 PM,42.8,37.4,81,29.82,10.0,Calm,Calm,-,N/A,,Clear,0,2013-09-22 02:55:00
8:15 PM,42.8,37.4,81,29.84,10.0,SSW,4.6,-,N/A,,Clear,210,2013-09-22 03:15:00
8:35 PM,41.0,37.4,87,29.84,10.0,SSW,5.8,-,N/A,,Clear,200,2013-09-22 03:35:00
8:55 PM,39.2,35.6,87,29.85,10.0,Calm,Calm,-,N/A,,Partly Cloudy,0,2013-09-22 03:55:00
9:15 PM,39.2,37.4,93,29.85,10.0,SSE,4.6,-,N/A,,Mostly Cloudy,160,2013-09-22 04:15:00
9:35 PM,39.2,37.4,93,29.86,10.0,SSW,4.6,-,N/A,,Scattered Clouds,200,2013-09-22 04:35:00
9:55 PM,41.0,37.4,87,29.87,10.0,SSW,3.5,-,N/A,,Mostly Cloudy,210,2013-09-22 04:55:00
10:15 PM,42.8,39.2,87,29.87,10.0,SSW,3.5,-,N/A,,Overcast,210,2013-09-22 05:15:00
10:35 PM,42.8,37.4,81,29.87,10.0,SSE,6.9,-,N/A,,Mostly Cloudy,150,2013-09-22 05:35:00
10:55 PM,41.0,37.4,87,29.87,10.0,ESE,4.6,-,N/A,,Mostly Cloudy,120,2013-09-22 05:55:00
11:15 PM,41.0,37.4,87,29.87,10.0,SSE,4.6,-,N/A,,Mostly Cloudy,160,2013-09-22 06:15:00
11:35 PM,42.8,37.4,81,29.87,10.0,SSE,9.2,-,N/A,,Overcast,160,2013-09-22 06:35:00
11:55 PM,42.8,39.2,87,29.87,10.0,SSE,6.9,-,N/A,,Overcast,160,2013-09-22 06:55:00